Time,TemperatureF,DewpointF,PressureIn,WindDirection,WindDirectionDegrees,WindSpeedMPH,WindSpeedGustMPH,Humidity,HourlyPrecipIn,Conditions,Clouds,dailyrainin,SoftwareType,DateUTC
2013-05-15 00:03:00,58.3,45.0,29.99,SSW,210,0.0,1.0,61,0.00,,,0.00,weatherlink.com 1.10,2013-05-15 04:03:00,
2013-05-15 00:18:00,58.4,44.0,29.98,SW,217,0.0,2.0,59,0.00,,,0.00,weatherlink.com 1.10,2013-05-15 04:18:00,
2013-05-15 00:33:00,57.5,48.0,29.98,SW,221,0.0,1.0,70,0.00,,,0.00,weatherlink.com 1.10,2013-05-15 04:33:00,
2013-05-15 00:48:00,57.0,45.0,29.97,SW,221,0.0,0.0,65,0.00,,,0.00,weatherlink.com 1.10,2013-05-15 04:48:00,
2013-05-15 01:03:00,57.2,44.0,29.97,SSW,205,0.0,1.0,61,0.00,,,0.00,weatherlink.com 1.10,2013-05-15 05:03:00,
2013-05-15 01:18:00,55.9,46.0,29.97,WNW,286,0.0,1.0,70,0.00,,,0.00,weatherlink.com 1.10,2013-05-15 05:18:00,
2013-05-15 01:33:00,54.7,45.0,29.96,NW,326,0.0,1.0,71,0.00,,,0.00,weatherlink.com 1.10,2013-05-15 05:33:00,
2013-05-15 01:48:00,53.7,45.0,29.96,NW,325,0.0,1.0,72,0.00,,,0.00,weatherlink.com 1.10,2013-05-15 05:48:00,
2013-05-15 02:03:00,51.8,45.0,29.95,SW,232,0.0,1.0,77,0.00,,,0.00,weatherlink.com 1.10,2013-05-15 06:03:00,
2013-05-15 02:18:00,52.0,45.0,29.95,SSW,195,0.0,1.0,76,0.00,,,0.00,weatherlink.com 1.10,2013-05-15 06:18:00,
2013-05-15 02:33:00,51.1,44.0,29.95,SW,232,0.0,1.0,78,0.00,,,0.00,weatherlink.com 1.10,2013-05-15 06:33:00,
2013-05-15 02:48:00,50.2,44.0,29.95,SW,232,0.0,0.0,80,0.00,,,0.00,weatherlink.com 1.10,2013-05-15 06:48:00,
2013-05-15 03:03:00,49.9,44.0,29.94,SW,231,0.0,0.0,81,0.00,,,0.00,weatherlink.com 1.10,2013-05-15 07:03:00,
2013-05-15 03:18:00,49.5,44.0,29.94,SW,236,0.0,1.0,82,0.00,,,0.00,weatherlink.com 1.10,2013-05-15 07:18:00,
2013-05-15 03:33:00,49.5,44.0,29.94,WSW,240,0.0,1.0,82,0.00,,,0.00,weatherlink.com 1.10,2013-05-15 07:33:00,
2013-05-15 03:48:00,48.7,44.0,29.93,SW,235,0.0,3.0,84,0.00,,,0.00,weatherlink.com 1.10,2013-05-15 07:48:00,
2013-05-15 04:04:00,48.8,45.0,29.93,NW,318,1.0,3.0,88,0.00,,,0.00,weatherlink.com 1.10,2013-05-15 08:04:00,
2013-05-15 04:19:00,48.7,45.0,29.94,NW,311,0.0,2.0,88,0.00,,,0.00,weatherlink.com 1.10,2013-05-15 08:19:00,
2013-05-15 04:34:00,48.7,45.0,29.93,NW,311,0.0,0.0,88,0.00,,,0.00,weatherlink.com 1.10,2013-05-15 08:34:00,
2013-05-15 04:49:00,48.3,45.0,29.93,NW,322,0.0,1.0,89,0.00,,,0.00,weatherlink.com 1.10,2013-05-15 08:49:00,
2013-05-15 05:04:00,48.2,46.0,29.94,WNW,300,0.0,2.0,90,0.00,,,0.00,weatherlink.com 1.10,2013-05-15 09:04:00,
2013-05-15 05:19:00,47.7,45.0,29.93,SW,236,0.0,1.0,90,0.00,,,0.00,weatherlink.com 1.10,2013-05-15 09:19:00,
2013-05-15 05:34:00,47.7,45.0,29.93,North,6,0.0,1.0,90,0.00,,,0.00,weatherlink.com 1.10,2013-05-15 09:34:00,
2013-05-15 05:49:00,47.5,45.0,29.93,North,360,1.0,2.0,91,0.00,,,0.00,weatherlink.com 1.10,2013-05-15 09:49:00,
2013-05-15 06:04:00,47.8,45.0,29.93,East,80,2.0,3.0,90,0.00,,,0.00,weatherlink.com 1.10,2013-05-15 10:04:00,
2013-05-15 06:19:00,49.2,45.0,29.95,SSE,163,0.0,3.0,85,0.00,,,0.00,weatherlink.com 1.10,2013-05-15 10:19:00,
2013-05-15 06:34:00,49.8,46.0,29.94,WSW,250,0.0,3.0,85,0.00,,,0.00,weatherlink.com 1.10,2013-05-15 10:34:00,
2013-05-15 06:49:00,49.6,45.0,29.94,North,359,1.0,2.0,85,0.00,,,0.00,weatherlink.com 1.10,2013-05-15 10:49:00,
2013-05-15 07:04:00,50.2,46.0,29.94,North,359,0.0,2.0,86,0.00,,,0.00,weatherlink.com 1.10,2013-05-15 11:04:00,
2013-05-15 07:19:00,51.9,47.0,29.94,NNE,23,0.0,1.0,83,0.00,,,0.00,weatherlink.com 1.10,2013-05-15 11:19:00,
2013-05-15 07:34:00,54.1,49.0,29.93,East,98,2.0,2.0,84,0.00,,,0.00,weatherlink.com 1.10,2013-05-15 11:34:00,
2013-05-15 08:19:00,56.4,52.0,29.93,SE,125,1.0,3.0,84,0.00,,,0.00,weatherlink.com 1.10,2013-05-15 12:19:00,
2013-05-15 08:34:00,57.8,52.0,29.93,SE,145,2.0,4.0,81,0.00,,,0.00,weatherlink.com 1.10,2013-05-15 12:34:00,
2013-05-15 08:49:00,60.7,53.0,29.93,SE,127,3.0,6.0,77,0.00,,,0.00,weatherlink.com 1.10,2013-05-15 12:49:00,
2013-05-15 09:04:00,63.1,55.0,29.93,SW,229,3.0,6.0,76,0.00,,,0.00,weatherlink.com 1.10,2013-05-15 13:04:00,
2013-05-15 09:19:00,68.9,56.0,29.92,SW,232,6.0,14.0,63,0.00,,,0.00,weatherlink.com 1.10,2013-05-15 13:19:00,
2013-05-15 09:34:00,69.5,56.0,29.91,South,181,6.0,9.0,63,0.00,,,0.00,weatherlink.com 1.10,2013-05-15 13:34:00,
2013-05-15 09:49:00,69.4,57.0,29.91,SE,141,7.0,10.0,65,0.00,,,0.00,weatherlink.com 1.10,2013-05-15 13:49:00,
2013-05-15 10:04:00,69.6,59.0,29.90,SSE,150,5.0,10.0,68,0.00,,,0.00,weatherlink.com 1.10,2013-05-15 14:04:00,
2013-05-15 10:19:00,71.2,58.0,29.89,SSE,150,5.0,12.0,64,0.00,,,0.00,weatherlink.com 1.10,2013-05-15 14:19:00,
2013-05-15 10:34:00,72.6,59.0,29.89,SSE,160,7.0,16.0,63,0.00,,,0.00,weatherlink.com 1.10,2013-05-15 14:34:00,
2013-05-15 10:49:00,74.0,60.0,29.88,SE,141,10.0,13.0,61,0.00,,,0.00,weatherlink.com 1.10,2013-05-15 14:49:00,
2013-05-15 11:04:00,77.0,58.0,29.88,SW,228,7.0,13.0,53,0.00,,,0.00,weatherlink.com 1.10,2013-05-15 15:04:00,
2013-05-15 11:20:00,78.7,60.0,29.87,SW,221,6.0,12.0,52,0.00,,,0.00,weatherlink.com 1.10,2013-05-15 15:20:00,
2013-05-15 11:35:00,77.9,61.0,29.86,SSE,158,11.0,16.0,56,0.00,,,0.00,weatherlink.com 1.10,2013-05-15 15:35:00,
2013-05-15 11:50:00,78.2,61.0,29.86,South,177,10.0,15.0,55,0.00,,,0.00,weatherlink.com 1.10,2013-05-15 15:50:00,
2013-05-15 12:05:00,77.9,60.0,29.85,SSE,152,10.0,16.0,55,0.00,,,0.00,weatherlink.com 1.10,2013-05-15 16:05:00,
2013-05-15 12:20:00,79.1,61.0,29.85,SE,137,6.0,14.0,55,0.00,,,0.00,weatherlink.com 1.10,2013-05-15 16:20:00,
2013-05-15 12:35:00,82.2,60.0,29.84,SE,139,8.0,13.0,47,0.00,,,0.00,weatherlink.com 1.10,2013-05-15 16:35:00,
2013-05-15 12:50:00,85.3,62.0,29.83,WSW,245,4.0,12.0,45,0.00,,,0.00,weatherlink.com 1.10,2013-05-15 16:50:00,
2013-05-15 13:05:00,87.2,60.0,29.82,NNW,334,3.0,12.0,40,0.00,,,0.00,weatherlink.com 1.10,2013-05-15 17:05:00,
2013-05-15 13:20:00,90.1,60.0,29.82,NW,313,4.0,11.0,37,0.00,,,0.00,weatherlink.com 1.10,2013-05-15 17:20:00,
2013-05-15 13:50:00,92.5,56.0,29.80,WSW,250,3.0,19.0,29,0.00,,,0.00,weatherlink.com 1.10,2013-05-15 17:50:00,
2013-05-15 14:05:00,93.4,55.0,29.80,SW,229,7.0,10.0,27,0.00,,,0.00,weatherlink.com 1.10,2013-05-15 18:05:00,
2013-05-15 14:20:00,93.4,55.0,29.80,SW,235,7.0,19.0,27,0.00,,,0.00,weatherlink.com 1.10,2013-05-15 18:20:00,
2013-05-15 14:35:00,94.4,55.0,29.79,SW,231,1.0,12.0,26,0.00,,,0.00,weatherlink.com 1.10,2013-05-15 18:35:00,
2013-05-15 14:50:00,94.9,53.0,29.78,WSW,257,6.0,11.0,24,0.00,,,0.00,weatherlink.com 1.10,2013-05-15 18:50:00,
2013-05-15 15:05:00,95.2,53.0,29.77,WSW,250,3.0,13.0,24,0.00,,,0.00,weatherlink.com 1.10,2013-05-15 19:05:00,
2013-05-15 15:20:00,93.9,50.0,29.76,SSW,193,6.0,20.0,22,0.00,,,0.00,weatherlink.com 1.10,2013-05-15 19:20:00,
2013-05-15 15:35:00,94.6,50.0,29.76,West,259,5.0,13.0,22,0.00,,,0.00,weatherlink.com 1.10,2013-05-15 19:35:00,
2013-05-15 15:50:00,94.2,53.0,29.75,WSW,239,8.0,16.0,25,0.00,,,0.00,weatherlink.com 1.10,2013-05-15 19:50:00,
2013-05-15 16:05:00,94.2,51.0,29.74,South,179,3.0,15.0,23,0.00,,,0.00,weatherlink.com 1.10,2013-05-15 20:05:00,
2013-05-15 16:36:00,93.5,49.0,29.73,WSW,245,5.0,15.0,22,0.00,,,0.00,weatherlink.com 1.10,2013-05-15 20:36:00,
2013-05-15 16:51:00,93.1,48.0,29.73,NW,320,11.0,24.0,21,0.00,,,0.00,weatherlink.com 1.10,2013-05-15 20:51:00,
2013-05-15 17:06:00,93.2,49.0,29.73,WNW,302,7.0,17.0,22,0.00,,,0.00,weatherlink.com 1.10,2013-05-15 21:06:00,
2013-05-15 17:21:00,93.4,50.0,29.73,West,281,12.0,13.0,23,0.00,,,0.00,weatherlink.com 1.10,2013-05-15 21:21:00,
2013-05-15 17:36:00,92.4,48.0,29.72,West,273,9.0,26.0,22,0.00,,,0.00,weatherlink.com 1.10,2013-05-15 21:36:00,
2013-05-15 17:51:00,92.1,47.0,29.72,SSW,207,14.0,23.0,21,0.00,,,0.00,weatherlink.com 1.10,2013-05-15 21:51:00,
2013-05-15 18:06:00,91.9,50.0,29.72,NW,311,4.0,20.0,24,0.00,,,0.00,weatherlink.com 1.10,2013-05-15 22:06:00,
2013-05-15 18:21:00,91.2,47.0,29.71,SSE,164,4.0,26.0,22,0.00,,,0.00,weatherlink.com 1.10,2013-05-15 22:21:00,
2013-05-15 18:36:00,90.9,52.0,29.72,SW,229,3.0,9.0,26,0.00,,,0.00,weatherlink.com 1.10,2013-05-15 22:36:00,
2013-05-15 18:51:00,89.8,52.0,29.71,SW,215,4.0,13.0,27,0.00,,,0.00,weatherlink.com 1.10,2013-05-15 22:51:00,
2013-05-15 19:06:00,89.0,49.0,29.72,SW,235,4.0,18.0,25,0.00,,,0.00,weatherlink.com 1.10,2013-05-15 23:06:00,
2013-05-15 19:36:00,87.4,50.0,29.72,NNW,336,3.0,10.0,27,0.00,,,0.00,weatherlink.com 1.10,2013-05-15 23:36:00,
2013-05-15 19:51:00,85.8,49.0,29.73,WSW,245,11.0,13.0,28,0.00,,,0.00,weatherlink.com 1.10,2013-05-15 23:51:00,
2013-05-15 20:21:00,82.7,48.0,29.74,West,274,4.0,8.0,30,0.00,,,0.00,weatherlink.com 1.10,2013-05-16 00:21:00,
2013-05-15 21:21:00,79.8,49.0,29.77,SSE,163,1.0,4.0,34,0.00,,,0.00,weatherlink.com 1.10,2013-05-16 01:21:00,
2013-05-15 21:36:00,79.3,49.0,29.78,SSW,204,2.0,8.0,34,0.00,,,0.00,weatherlink.com 1.10,2013-05-16 01:36:00,
2013-05-15 21:51:00,77.5,49.0,29.79,SSW,210,4.0,5.0,37,0.00,,,0.00,weatherlink.com 1.10,2013-05-16 01:51:00,
2013-05-15 22:06:00,76.7,50.0,29.80,SW,229,2.0,5.0,39,0.00,,,0.00,weatherlink.com 1.10,2013-05-16 02:06:00,
2013-05-15 22:21:00,74.2,50.0,29.80,West,269,0.0,2.0,43,0.00,,,0.00,weatherlink.com 1.10,2013-05-16 02:21:00,
2013-05-15 22:36:00,72.9,50.0,29.80,SW,228,3.0,5.0,44,0.00,,,0.00,weatherlink.com 1.10,2013-05-16 02:36:00,
2013-05-15 22:51:00,73.3,51.0,29.80,WSW,249,1.0,4.0,45,0.00,,,0.00,weatherlink.com 1.10,2013-05-16 02:51:00,
2013-05-15 23:06:00,74.2,51.0,29.80,West,269,1.0,7.0,44,0.00,,,0.00,weatherlink.com 1.10,2013-05-16 03:06:00,
2013-05-15 23:21:00,75.3,51.0,29.80,SSW,207,1.0,4.0,43,0.00,,,0.00,weatherlink.com 1.10,2013-05-16 03:21:00,
2013-05-15 23:36:00,75.3,52.0,29.80,SW,229,1.0,5.0,44,0.00,,,0.00,weatherlink.com 1.10,2013-05-16 03:36:00,